Change the Weather History Date:

Thursday, November 7, 2013

  Actual Average Record
Temperature  
Mean Temperature 42 °F -  
Max Temperature 57 °F 58 °F 79 °F (1983)
Min Temperature 26 °F 30 °F 13 °F (1955)
Degree Days  
Heating Degree Days 24    
Moisture  
Dew Point 15 °F    
Average Humidity 37    
Maximum Humidity 61    
Minimum Humidity 18    
Precipitation  
Precipitation 0.00 in - - ()
Sea Level Pressure  
Sea Level Pressure 30.30 in    
Wind  
Wind Speed 10 mph (SSE)    
Max Wind Speed 21 mph    
Max Gust Speed 28 mph    
Visibility 10 miles    
Events      
Averages and records for this station are not official NWS values.
T = Trace of Precipitation, MM = Missing Value Source: NWS Daily Summary

Daily Weather History Graph

Daily Weather History Graph

Search for Another Location

Airport or City:

Trip Planner

Search our weather history database for the weather conditions in past years. The results will help you decide how hot, cold, wet, or windy it might be!

Date:

Astronomy

Nov. 07, 2013 Rise Set
Actual Time 6:28 AM MST 4:59 PM MST
Civil Twilight 6:01 AM MST 5:26 PM MST
Nautical Twilight 5:31 AM MST 5:56 PM MST
Astronomical Twilight 5:01 AM MST 6:26 PM MST
Moon 10:37 AM MST (11/7) 9:15 PM MST (11/7)
Length of Visible Light 11h 24m
Length of Day
10h 30m
Waxing Crescent, 23% of the Moon is Illuminated
Nov 7
Waxing Crescent
Nov 9
First Quarter
Nov 17
Full
Nov 25
Last Quarter
Dec 2
New

Hourly Weather History & Observations

Time (MST) Temp. Windchill Dew Point Humidity Pressure Visibility Wind Dir Wind Speed Gust Speed Precip Events Conditions
12:53 AM 27.0 °F 19.5 °F 15.1 °F 61% 30.34 in 10.0 mi ENE 6.9 mph - N/A   Clear
1:53 AM 26.1 °F 18.4 °F 14.0 °F 60% 30.34 in 10.0 mi NE 6.9 mph - N/A   Clear
2:53 AM 26.1 °F 19.4 °F 14.0 °F 60% 30.34 in 10.0 mi NNE 5.8 mph - N/A   Clear
3:53 AM 26.1 °F 17.6 °F 14.0 °F 60% 30.34 in 10.0 mi NE 8.1 mph - N/A   Clear
4:53 AM 27.0 °F 17.3 °F 14.0 °F 58% 30.38 in 10.0 mi NNE 10.4 mph - N/A   Clear
5:53 AM 27.0 °F 18.7 °F 12.9 °F 56% 30.43 in 10.0 mi NE 8.1 mph - N/A   Clear
6:53 AM 30.9 °F 25.2 °F 12.9 °F 47% 30.43 in 10.0 mi NE 5.8 mph - N/A   Clear
7:53 AM 39.9 °F - 14.0 °F 35% 30.42 in 10.0 mi Calm Calm - N/A   Clear
8:53 AM 46.0 °F - 15.1 °F 29% 30.40 in 10.0 mi Calm Calm - N/A   Clear
9:53 AM 50.0 °F - 15.1 °F 25% 30.37 in 10.0 mi South 9.2 mph - N/A   Clear
10:53 AM 52.0 °F - 17.1 °F 25% 30.36 in 10.0 mi SSW 11.5 mph - N/A   Clear
11:53 AM 55.0 °F - 16.0 °F 22% 30.31 in 10.0 mi South 15.0 mph - N/A   Clear
12:53 PM 55.9 °F - 12.9 °F 18% 30.28 in 10.0 mi SSW 19.6 mph - N/A   Clear
1:53 PM 57.0 °F - 14.0 °F 18% 30.25 in 10.0 mi South 19.6 mph 26.5 mph N/A   Clear
2:53 PM 57.0 °F - 14.0 °F 18% 30.23 in 10.0 mi South 20.7 mph 27.6 mph N/A   Clear
3:53 PM 55.9 °F - 15.1 °F 20% 30.23 in 10.0 mi South 19.6 mph - N/A   Clear
4:53 PM 50.0 °F - 15.1 °F 25% 30.25 in 10.0 mi South 13.8 mph - N/A   Clear
5:53 PM 46.0 °F 40.6 °F 14.0 °F 28% 30.26 in 10.0 mi South 11.5 mph - N/A   Clear
6:53 PM 42.1 °F 35.2 °F 14.0 °F 32% 30.26 in 10.0 mi South 12.7 mph - N/A   Clear
7:53 PM 37.0 °F 29.3 °F 15.1 °F 41% 30.25 in 10.0 mi South 11.5 mph - N/A   Clear
8:53 PM 41.0 °F 32.8 °F 17.1 °F 38% 30.19 in 10.0 mi SW 16.1 mph - N/A   Clear
9:53 PM 41.0 °F 33.5 °F 16.0 °F 36% 30.17 in 10.0 mi SW 13.8 mph - N/A   Clear
10:53 PM 37.0 °F 28.1 °F 16.0 °F 42% 30.16 in 10.0 mi South 15.0 mph - N/A   Clear
11:53 PM 35.1 °F 26.4 °F 16.0 °F 46% 30.14 in 10.0 mi South 12.7 mph - N/A   Clear